Powrót do katalogu

STARLINK-34637

AktywnyŁącznośćVLEO
NORAD 64776·PAYLOAD·🇺🇸 United States

Wystrzelony Jul 8, 2025 z Cape Canaveral Space Force Station

Loading…

Następne Przeloty (najbliższe 24 godziny)

TLE

ŚwieżeSource: CelesTrak SupGP

Epoka: Sep 14, 2026, 21:32 UTC

1 64776C 25147X   26257.89770833  .00008644  00000+0  25547-3 0  2570
2 64776  53.1584  80.0819 0001302  85.8150 292.7561 15.34374486    15

Śledź STARLINK-34637 w czasie rzeczywistym z AllMySat

Download on the App Store